Hourly Data Report for June 14, 2021

FISHER BRANCH (AUT)
MANITOBA
Current Station Operator: ECCC - MSC

51°05'00.100" N
97°33'16.200" W
253.00 m
50309J6
71442
WSZ

Download Data

Hourly Data (June 2021)
Hourly Data Report for June 14, 2021
TIME
LST
Temp Definition
°C
Dew Point Definition
°C
Rel Hum Definition
%
Precip. Amount Definition
mm

Wind Dir Definition
10's deg

Wind Spd Definition
km/h
Visibility Definition
km
Stn Press Definition
kPa
Hmdx Definition


Wind Chill Definition


Weather Definition


00:00 11.6 7.3 75 0.0 29 2   98.75     LegendNANA
01:00 10.4 7.5 82 0.0 32 2   98.79     LegendNANA
02:00 10.2 7.9 86 0.0 29 3   98.85     LegendNANA
03:00 9.4 7.4 87 0.0 29 5   98.92     LegendNANA
04:00 9.4 6.7 83 0.0 31 5   98.97     LegendNANA
05:00 9.8 6.9 82 0.0 34 5   99.04     LegendNANA
06:00 12.8 9.1 78 0.0 34 5   99.11     LegendNANA
07:00 15.7 10.5 71 0.0 36 4   99.16     LegendNANA
08:00 18.1 11.1 64 0.0 5 7   99.18     LegendNANA
09:00 19.3 10.4 56 0.0 35 10   99.19     LegendNANA
10:00 21.0 8.8 46 0.0 35 12   99.21     LegendNANA
11:00 22.7 8.9 41 0.0 35 13   99.22     LegendNANA
12:00 23.5 7.9 37 0.0 35 18   99.23     LegendNANA
13:00 24.9 6.4 30 0.0 35 16   99.21 25   LegendNANA
14:00 25.6 6.3 29 0.0 36 19   99.20 25   LegendNANA
15:00 25.6 4.9 26 0.0 35 19   99.21 25   LegendNANA
16:00 25.5 4.0 25 0.0 1 16   99.21     LegendNANA
17:00 25.1 3.5 25 0.0 35 18   99.21     LegendNANA
18:00 24.5 4.4 27 0.0 3 13   99.21     LegendNANA
19:00 23.7 3.8 27 0.0 35 14   99.23     LegendNANA
20:00 21.9 5.1 33 0.0 34 6   99.21     LegendNANA
21:00 18.6 6.4 45 0.0 31 9   99.22     LegendNANA
22:00 17.0 5.8 48 0.0 34 8   99.27     LegendNANA
23:00 13.0 6.3 64 0.0 1 4   99.27     LegendNANA

Notes on Data Quality.

Legend

  • E = Estimated
  • M = Missing
  • NA = Not Available*
  • [empty] = Indicates an unobserved value
Date modified: